[[{"header":{"parameterUnit":"m.s-1","parameterCategory":2,"la1":30.2991,"la2":30.254,"lo1":-89.0895,"lo2":-89.0444,"dy":0.0017,"dx":0.0017,"nx":28,"ny":28,"refTime":"2023-08-05T21:00:00:Z","depth":"0","parameterNumber":2,"parameterNumberName":"U-component_of_CURRENTS"},"data":[0,0,0,0,0,0,0,0,0,0,0,0,0,0,0,0,0,0,0,0,0,0,0,0,0,0,0,0,0,0,0,0,0,0,0,0,0,0,0,0,0,0,0,0,0,0,0,0,0,0,0,0,0,0,0,0,0,0,0.2694,0.2694,0,0.274,0.274,0.2741,0.2785,0.2786,0.2787,0.2787,0.289,0.2892,0.2895,0,0,0,0,0,0,0,0,0,0,0,0,0,0.2645,0.2645,0.2694,0.2695,0.2695,0.2739,0.274,0.2741,0.2785,0.2786,0.2787,0.2787,0.2889,0.2892,0.2895,0,0,0,0,0,0,0,0,0,0,0,0,0,0.2676,0.2646,0.2694,0.2723,0.2726,0.2739,0.274,0.2741,0.2785,0.2786,0.2787,0.2788,0.2889,0.2892,0.2895,0.2898,0,0,0.2905,0.2907,0,0,0,0,0,0,0,0,0.2674,0.2678,0.2718,0.2721,0.2724,0.2758,0.2761,0.2796,0.2785,0.2763,0.2787,0.2788,0.285,0.2857,0.2863,0.2903,0.2908,0.2906,0.2908,0.2909,0.291,0,0,0,0,0,0,0,0.2672,0.2676,0.2712,0.2718,0.2722,0.2733,0.2738,0.2767,0.2802,0.2765,0.2768,0.2773,0.2853,0.286,0.2866,0.2909,0.2905,0.2908,0.291,0.2912,0.3045,0.3046,0,0,0,0,0,0,0.2665,0.2674,0.2711,0.2714,0.27,0.2733,0.2739,0.2746,0.2801,0.281,0.2772,0.2774,0.2854,0.2862,0.287,0.2988,0.2909,0.2912,0.2914,0.3043,0.3045,0.3047,0,0,0,0,0,0,0.2664,0.2668,0.2709,0.2694,0.27,0.2733,0.274,0.2746,0.2759,0.2806,0.2816,0.2779,0.2855,0.2865,0.2914,0.2988,0.2914,0.2917,0.3041,0.3044,0.3046,0.3153,0,0,0,0,0,0,0.2662,0.2667,0.2671,0.2694,0.2701,0.2724,0.274,0.2747,0.276,0.2764,0.2815,0.2825,0.2856,0.2909,0.2917,0.2991,0.2919,0.3039,0.3042,0.3045,0.3148,0.3159,0.3168,0,0,0,0,0,0.266,0.268,0.267,0.2675,0.2704,0.2724,0.2729,0.2755,0.2759,0.2768,0.2809,0.2823,0.2934,0.2912,0.2922,0.2999,0.3038,0.3042,0.3045,0.3143,0.3157,0.3168,0,0,0,0,0,0,0.2674,0.2687,0.2677,0.2702,0.2707,0.2732,0.2746,0.2751,0.2787,0.2794,0.2834,0.2848,0.2922,0.2928,0.2903,0.3041,0.2992,0.2997,0.3063,0.3076,0.3086,0.3026,0.2922,0,0,0,0,0,0.267,0.2681,0.2688,0.2705,0.2706,0.2717,0.2727,0.2739,0.2771,0.2786,0.2822,0.2871,0.2941,0.2979,0.3018,0.3085,0.3098,0.314,0.3151,0.316,0.3115,0.3223,0.324,0.3058,0.3058,0.3058,0,0,0.2681,0.2687,0.2695,0.2706,0.2711,0.2731,0.2727,0.2743,0.2775,0.2792,0.285,0.2898,0.296,0.305,0.3085,0.307,0.3225,0.3164,0.3172,0.3121,0.3229,0.3247,0.3263,0.306,0.306,0.306,0,0,0.2713,0.2707,0.2725,0.2728,0.2732,0.2742,0.2743,0.2762,0.2785,0.283,0.2878,0.2951,0.3026,0.3106,0.3155,0.3233,0.3266,0.3265,0.3289,0.3399,0.3414,0.3428,0.35,0.352,0.3285,0.3285,0.3285,0,0.2727,0.2747,0.2733,0.2749,0.2766,0.2747,0.2777,0.2794,0.2831,0.2869,0.2856,0.3007,0.3054,0.3206,0.3234,0.3261,0.3308,0.325,0.3415,0.3428,0.3441,0.3511,0.3531,0.3291,0.329,0.3289,0.3289,0,0.2774,0.2782,0.2794,0.2807,0.282,0.284,0.2854,0.2874,0.289,0.2924,0.3032,0.3093,0.3188,0.3241,0.3258,0.3398,0.34,0.3412,0.3387,0.3466,0.3534,0.3553,0.3299,0.3297,0.3295,0.3293,0,0,0.2835,0.2829,0.2833,0.2839,0.2854,0.2871,0.2918,0.2972,0.3016,0.3057,0.3142,0.3256,0.3276,0.3325,0.3389,0.3466,0.3612,0.3469,0.3472,0.3544,0.384,0.3807,0.3824,0.3675,0.3679,0.3681,0.3865,0,0.2879,0.2901,0.2907,0.2945,0.2955,0.2965,0.3013,0.3057,0.3093,0.3161,0.324,0.3333,0.3323,0.3386,0.3466,0.3569,0.366,0.3557,0.3743,0.3747,0.3714,0.3844,0.3715,0.3864,0.3883,0.3886,0.3888,0,0.2919,0.2932,0.2963,0.2996,0.3008,0.3041,0.3109,0.3156,0.324,0.3268,0.3357,0.3403,0.3532,0.3496,0.3702,0.3645,0.3728,0.3791,0.3802,0.3726,0.3748,0.378,0.3897,0.3685,0.3917,0.3915,0.3913,0,0.2929,0.2972,0.2995,0.3006,0.3045,0.3085,0.3128,0.3197,0.3236,0.3342,0.3375,0.3522,0.3593,0.3721,0.3816,0.379,0.4014,0.4019,0.4068,0.4066,0.3959,0.3942,0.3883,0.4157,0.4156,0.4156,0.4155,0,0.2949,0.2971,0.3,0.3008,0.3057,0.3104,0.3168,0.3212,0.3297,0.3351,0.3434,0.3498,0.3646,0.3775,0.3867,0.4019,0.408,0.4072,0.4122,0.3994,0.3979,0.3786,0.3696,0.4163,0.4161,0.416,0.4159,0,0.2917,0.2938,0.2961,0.3021,0.304,0.3075,0.3148,0.3192,0.3278,0.3348,0.3384,0.3514,0.369,0.383,0.4045,0.4084,0.4118,0.4275,0.4087,0.4109,0.3933,0.3856,0.3803,0.3713,0.4374,0.4375,0.4375,0,0.289,0.2896,0.2936,0.2941,0.2963,0.3021,0.3049,0.3152,0.3195,0.3349,0.3381,0.3567,0.3673,0.3963,0.4106,0.4302,0.4139,0.4251,0.4166,0.3902,0.3855,0.3735,0.3653,0.4088,0.4086,0.4084,0.4083,0,0.2845,0.2856,0.2864,0.2856,0.2884,0.2921,0.2985,0.3019,0.3151,0.3219,0.3347,0.3461,0.3742,0.3872,0.41,0.4203,0.401,0.4222,0.4019,0.3669,0.3466,0.3409,0.3959,0.4068,0.407,0.4071,0.4071,0.4072,0.2794,0.2772,0.2762,0.2751,0.2781,0.2808,0.2813,0.2901,0.2969,0.305,0.3239,0.3319,0.3561,0.3881,0.3958,0.3908,0.3957,0.3804,0.3753,0.367,0.3492,0.3982,0.4098,0.41,0.4101,0.4102,0.4103,0,0.269,0.2663,0.2654,0.2635,0.2625,0.2679,0.274,0.273,0.2771,0.2873,0.2975,0.3106,0.3247,0.3399,0.351,0.3419,0.3336,0.3306,0.3066,0.303,0.3528,0.3416,0.3303,0.3303,0.3303,0.3303,0.3303,0.3304,0.262,0.2556,0.254,0.2472,0.247,0.2431,0.2446,0.2452,0.2488,0.248,0.2485,0.2621,0.2828,0.2943,0.2881,0.2866,0.2636,0.2598,0.2567,0.2832,0.2871,0.2908,0.2777,0.2531,0.2531,0.1979,0.1974,0.197]},{"header":{"parameterUnit":"m.s-1","parameterCategory":2,"la1":30.2991,"la2":30.254,"lo1":-89.0895,"lo2":-89.0444,"dy":0.0017,"dx":0.0017,"nx":28,"ny":28,"refTime":"2023-08-05T21:00:00:Z","depth":"0","parameterNumber":3,"parameterNumberName":"V-component_of_CURRENTS"},"data":[0,0,0,0,0,0,0,0,0,0,0,0,0,0,0,0,0,0,0,0,0,0,0,0,0,0,0,0,0,0,0,0,0,0,0,0,0,0,0,0,0,0,0,0,0,0,0,0,0,0,0,0,0,0,0,0,0,0,-0.0587,-0.0587,0,-0.0592,-0.0592,-0.0593,-0.0669,-0.067,-0.0672,-0.0673,-0.0805,-0.0807,-0.0809,0,0,0,0,0,0,0,0,0,0,0,0,0,-0.0627,-0.0627,-0.0587,-0.0587,-0.0586,-0.0592,-0.0592,-0.0593,-0.0669,-0.0671,-0.0672,-0.0674,-0.0804,-0.0807,-0.081,0,0,0,0,0,0,0,0,0,0,0,0,0,-0.0625,-0.0627,-0.0588,-0.062,-0.0622,-0.0592,-0.0592,-0.0593,-0.0669,-0.0671,-0.0673,-0.0674,-0.0803,-0.0807,-0.081,-0.0791,0,0,-0.082,-0.0822,0,0,0,0,0,0,0,0,-0.0625,-0.0624,-0.0616,-0.0617,-0.062,-0.0626,-0.0654,-0.0664,-0.0668,-0.0658,-0.0673,-0.0675,-0.0751,-0.0759,-0.0763,-0.0797,-0.0803,-0.0821,-0.0823,-0.0824,-0.0825,0,0,0,0,0,0,0,-0.0625,-0.0624,-0.0596,-0.0615,-0.0617,-0.0627,-0.063,-0.0656,-0.0701,-0.0659,-0.0663,-0.0652,-0.0755,-0.0759,-0.0767,-0.0805,-0.0821,-0.0824,-0.0826,-0.0827,-0.0833,-0.0831,0,0,0,0,0,0,-0.0609,-0.0624,-0.0596,-0.0595,-0.062,-0.0625,-0.0628,-0.0628,-0.0698,-0.0708,-0.065,-0.0655,-0.0753,-0.0763,-0.0772,-0.0753,-0.0824,-0.0827,-0.0829,-0.0835,-0.0832,-0.083,0,0,0,0,0,0,-0.061,-0.0607,-0.0595,-0.0604,-0.0603,-0.0621,-0.062,-0.0626,-0.0633,-0.0689,-0.0703,-0.065,-0.0755,-0.0767,-0.0783,-0.0759,-0.0829,-0.0832,-0.0837,-0.0834,-0.0831,-0.0716,0,0,0,0,0,0,-0.0612,-0.0608,-0.0605,-0.0603,-0.0601,-0.0562,-0.0618,-0.0625,-0.062,-0.0627,-0.0693,-0.0707,-0.0757,-0.0777,-0.0786,-0.0765,-0.0835,-0.0839,-0.0836,-0.0832,-0.0722,-0.0709,-0.0698,0,0,0,0,0,-0.0613,-0.0599,-0.0605,-0.0601,-0.0596,-0.056,-0.056,-0.0585,-0.0618,-0.0603,-0.065,-0.0705,-0.0762,-0.0778,-0.0789,-0.0769,-0.0841,-0.0837,-0.0832,-0.0727,-0.0712,-0.0699,0,0,0,0,0,0,-0.0599,-0.0604,-0.0611,-0.0595,-0.0569,-0.057,-0.0559,-0.0573,-0.0596,-0.0612,-0.068,-0.0696,-0.0703,-0.0742,-0.0759,-0.0757,-0.081,-0.0808,-0.0726,-0.0712,-0.0701,-0.068,-0.0838,0,0,0,0,0,-0.0593,-0.0593,-0.0578,-0.0557,-0.0548,-0.0551,-0.0542,-0.0549,-0.0563,-0.0576,-0.0619,-0.0663,-0.0689,-0.0707,-0.0738,-0.0732,-0.0761,-0.0725,-0.0713,-0.0703,-0.0692,-0.0707,-0.0695,-0.0816,-0.0816,-0.0816,0,0,-0.0575,-0.0577,-0.0574,-0.0554,-0.0546,-0.051,-0.0553,-0.0524,-0.0501,-0.0586,-0.0583,-0.0624,-0.0678,-0.0676,-0.0682,-0.0709,-0.068,-0.0698,-0.0689,-0.0683,-0.0701,-0.0689,-0.0679,-0.0813,-0.0814,-0.0814,0,0,-0.0531,-0.0544,-0.0527,-0.0504,-0.0478,-0.0474,-0.046,-0.0451,-0.0462,-0.0446,-0.0507,-0.0522,-0.0563,-0.059,-0.0612,-0.0549,-0.0618,-0.0566,-0.0492,-0.0506,-0.0496,-0.0488,-0.0494,-0.0487,-0.056,-0.0559,-0.0559,0,-0.0513,-0.0489,-0.0506,-0.0473,-0.0451,-0.0453,-0.041,-0.0403,-0.04,-0.0402,-0.0431,-0.0474,-0.0517,-0.0518,-0.0497,-0.0522,-0.0544,-0.0543,-0.0491,-0.0484,-0.0477,-0.0485,-0.048,-0.0553,-0.0554,-0.0555,-0.0555,0,-0.0452,-0.0428,-0.0407,-0.0378,-0.0353,-0.0311,-0.0298,-0.0281,-0.0294,-0.0294,-0.0295,-0.0342,-0.0373,-0.0381,-0.0421,-0.0398,-0.0431,-0.0475,-0.0527,-0.0458,-0.0471,-0.0467,-0.0545,-0.0547,-0.0549,-0.055,0,0,-0.0425,-0.038,-0.037,-0.0346,-0.0305,-0.0276,-0.0233,-0.0198,-0.0173,-0.0179,-0.0158,-0.0189,-0.0223,-0.0249,-0.03,-0.0303,-0.027,-0.0362,-0.0366,-0.0367,-0.0296,-0.0293,-0.029,-0.0314,-0.0313,-0.0312,-0.0317,0,-0.037,-0.0301,-0.0295,-0.0217,-0.0179,-0.0173,-0.0131,-0.0103,-0.0094,-0.0071,-0.011,-0.011,-0.0172,-0.0184,-0.0195,-0.0259,-0.0257,-0.0264,-0.0363,-0.0365,-0.0372,-0.0284,-0.0229,-0.0227,-0.0314,-0.0313,-0.0313,0,-0.0302,-0.0278,-0.02,-0.015,-0.0135,-0.0093,-0.0042,-0.0004,0.0026,0.0031,0.0027,-0.0008,-0.0016,-0.0077,-0.0136,-0.0143,-0.0201,-0.0245,-0.0248,-0.0284,-0.0355,-0.0313,-0.0218,-0.0329,-0.0308,-0.0308,-0.0308,0,-0.0262,-0.0201,-0.0145,-0.0124,-0.0069,-0.0047,-0.0021,0.0023,0.0061,0.0095,0.0128,0.0093,0.0083,0.001,-0.008,-0.0112,-0.0139,-0.0204,-0.0251,-0.0253,-0.0243,-0.0244,-0.0266,-0.0229,-0.0229,-0.0228,-0.0228,0,-0.019,-0.0143,-0.0128,-0.0094,-0.0043,-0.002,0.0048,0.0076,0.013,0.0201,0.0173,0.022,0.0104,0.0068,-0.0033,-0.0115,-0.0109,-0.0211,-0.0243,-0.0199,-0.0196,-0.0326,-0.039,-0.0229,-0.0229,-0.0229,-0.0229,0,-0.0122,-0.01,-0.0049,-0.0023,-0.0011,0.0022,0.0087,0.0148,0.019,0.0282,0.0299,0.0314,0.0282,0.0171,0.0066,-0.0042,-0.0169,-0.0164,-0.0095,-0.0119,-0.028,-0.0339,-0.039,-0.0404,-0.0215,-0.0215,-0.0215,0,-0.0077,-0.0043,-0.0014,0.0019,0.0034,0.008,0.0135,0.0176,0.0249,0.0353,0.0409,0.0412,0.0447,0.0303,0.0131,-0.002,-0.0133,-0.0096,-0.0145,-0.025,-0.0341,-0.0395,-0.0407,-0.0083,-0.0082,-0.0081,-0.008,0,-0.0021,-0.0013,0.0024,0.0086,0.0134,0.0194,0.0263,0.0325,0.0404,0.0497,0.0609,0.0646,0.0532,0.0432,0.0223,0.0098,-0.0139,-0.0082,-0.0206,-0.0233,-0.0277,-0.0319,-0.0124,-0.0071,-0.0072,-0.0072,-0.0073,-0.0073,0.0005,0.0043,0.0094,0.016,0.0221,0.0314,0.0386,0.0486,0.0613,0.0792,0.0782,0.0905,0.0709,0.0449,0.0252,-0.0065,-0.0088,-0.0169,-0.0228,-0.0273,-0.0286,-0.0062,-0.0044,-0.0045,-0.0046,-0.0046,-0.0047,0,0.0043,0.0104,0.0171,0.0256,0.0343,0.0359,0.049,0.0595,0.0768,0.0944,0.1067,0.108,0.0842,0.0537,0.0101,-0.0159,-0.0253,-0.0303,-0.0368,-0.0372,-0.018,-0.0175,-0.0165,-0.0165,-0.0165,-0.0165,-0.0165,-0.0165,0.0072,0.0158,0.0204,0.0349,0.0416,0.0549,0.0632,0.0799,0.0951,0.1203,0.1331,0.1394,0.1189,0.0353,-0.0213,-0.035,-0.0501,-0.0537,-0.0634,-0.0524,-0.0517,-0.051,-0.0521,-0.0584,-0.0584,-0.0771,-0.0773,-0.0775]}],[{"header":{"parameterUnit":"m.s-1","parameterCategory":2,"la1":30.2991,"la2":30.254,"lo1":-89.0895,"lo2":-89.0444,"dy":0.0017,"dx":0.0017,"nx":28,"ny":28,"refTime":"2023-08-05T21:00:00:Z","depth":"2","parameterNumber":2,"parameterNumberName":"U-component_of_CURRENTS"},"data":[0,0,0,0,0,0,0,0,0,0,0,0,0,0,0,0,0,0,0,0,0,0,0,0,0,0,0,0,0,0,0,0,0,0,0,0,0,0,0,0,0,0,0,0,0,0,0,0,0,0,0,0,0,0,0,0,0,0,0.123,0.1232,0,0.1404,0.1406,0.1408,0.1552,0.1554,0.1556,0.1557,0.1691,0.1693,0.1695,0,0,0,0,0,0,0,0,0,0,0,0,0,0.1082,0.1083,0.123,0.1232,0.1234,0.1404,0.1406,0.1409,0.1552,0.1554,0.1556,0.1558,0.169,0.1693,0.1695,0,0,0,0,0,0,0,0,0,0,0,0,0,0.1189,0.1084,0.1229,0.1327,0.1338,0.1404,0.1406,0.1409,0.1552,0.1554,0.1556,0.1559,0.1689,0.1692,0.1695,0.1666,0,0,0.1705,0.1706,0,0,0,0,0,0,0,0,0.1183,0.1194,0.131,0.132,0.1332,0.146,0.1404,0.1493,0.1551,0.1469,0.1557,0.156,0.1609,0.1619,0.1645,0.1672,0.1678,0.1705,0.1707,0.1708,0.1709,0,0,0,0,0,0,0,0.1175,0.1188,0.1298,0.1313,0.1326,0.1383,0.14,0.1422,0.1521,0.1477,0.1488,0.1508,0.1615,0.1642,0.1649,0.168,0.1705,0.1708,0.171,0.1711,0.1816,0.1817,0,0,0,0,0,0,0.115,0.118,0.1292,0.1303,0.1263,0.1384,0.1403,0.1416,0.1523,0.1542,0.1506,0.1514,0.1635,0.1645,0.1654,0.1747,0.1708,0.1711,0.1713,0.1815,0.1816,0.1817,0,0,0,0,0,0,0.1146,0.1157,0.1285,0.1247,0.1268,0.1383,0.1397,0.1418,0.15,0.1545,0.1564,0.1572,0.1638,0.165,0.1706,0.1748,0.1713,0.1715,0.1814,0.1815,0.1816,0.1852,0,0,0,0,0,0,0.114,0.1155,0.1166,0.1245,0.1269,0.1339,0.1395,0.142,0.1506,0.152,0.1607,0.162,0.1641,0.1702,0.1709,0.1752,0.1718,0.1812,0.1814,0.1816,0.185,0.1855,0.1859,0,0,0,0,0,0.1134,0.114,0.1165,0.118,0.1276,0.134,0.1357,0.1447,0.1507,0.1533,0.1598,0.162,0.1719,0.1704,0.1714,0.1758,0.1812,0.1814,0.1816,0.1848,0.1854,0.1859,0,0,0,0,0,0,0.1113,0.1158,0.1187,0.1216,0.1277,0.1365,0.1428,0.1469,0.1545,0.1599,0.1625,0.164,0.1707,0.1718,0.1702,0.1791,0.1771,0.1775,0.1793,0.1798,0.1803,0.1817,0.172,0,0,0,0,0,0.11,0.1113,0.1173,0.1209,0.1255,0.1347,0.1394,0.1459,0.1531,0.1573,0.1603,0.1662,0.1712,0.1746,0.1777,0.1821,0.1874,0.1856,0.1861,0.1864,0.1881,0.1987,0.2004,0.1824,0.1824,0.1824,0,0,0.1111,0.1138,0.1152,0.1204,0.129,0.134,0.1386,0.1495,0.1535,0.1571,0.1638,0.1677,0.1725,0.178,0.1812,0.1804,0.1945,0.1867,0.187,0.1886,0.1991,0.2009,0.2025,0.1825,0.1825,0.1825,0,0,0.1162,0.1173,0.1221,0.1255,0.1364,0.139,0.1423,0.1513,0.1567,0.1617,0.1667,0.173,0.1772,0.1823,0.1856,0.1901,0.1962,0.1914,0.1958,0.206,0.2077,0.2092,0.2193,0.2217,0.1921,0.1921,0.1921,0,0.1193,0.1245,0.1249,0.1309,0.1346,0.141,0.1478,0.152,0.1599,0.1662,0.1647,0.1775,0.1797,0.1909,0.1916,0.1916,0.1986,0.1935,0.2069,0.2085,0.21,0.22,0.2226,0.1923,0.1923,0.1923,0.1923,0,0.1268,0.1327,0.1377,0.1436,0.1443,0.1538,0.1561,0.1624,0.1671,0.1708,0.1822,0.1842,0.1943,0.1935,0.1936,0.206,0.2079,0.2061,0.206,0.2121,0.2221,0.2248,0.1926,0.1925,0.1925,0.1924,0,0,0.1392,0.142,0.1478,0.1493,0.1534,0.1555,0.1626,0.1714,0.1821,0.1843,0.1958,0.2001,0.2051,0.2089,0.2107,0.2153,0.2295,0.215,0.2155,0.2258,0.2544,0.2432,0.245,0.2313,0.2317,0.2321,0.2577,0,0.1516,0.1603,0.1582,0.1661,0.1694,0.1718,0.1758,0.1823,0.189,0.1991,0.2052,0.2139,0.2099,0.2166,0.2221,0.2276,0.2365,0.2229,0.2463,0.247,0.2369,0.2476,0.2167,0.2358,0.2603,0.2607,0.261,0,0.1653,0.1675,0.1747,0.1756,0.179,0.1826,0.1933,0.1971,0.2111,0.218,0.2297,0.2327,0.243,0.2359,0.2539,0.2463,0.2529,0.2541,0.2552,0.2454,0.2406,0.2334,0.2397,0.2655,0.2651,0.2648,0.2645,0,0.171,0.1813,0.1848,0.1851,0.1853,0.1938,0.1976,0.2082,0.2154,0.2314,0.2395,0.2527,0.2593,0.2693,0.2733,0.2671,0.2903,0.2834,0.2808,0.2802,0.2585,0.255,0.2993,0.2992,0.2992,0.2991,0.299,0,0.1813,0.188,0.1905,0.1914,0.2009,0.1987,0.2118,0.2214,0.235,0.2438,0.2506,0.2609,0.2672,0.2791,0.2835,0.2918,0.3029,0.2852,0.287,0.2586,0.255,0.2829,0.2806,0.3001,0.2998,0.2997,0.2995,0,0.1864,0.1895,0.192,0.1975,0.2013,0.2076,0.2186,0.2282,0.2411,0.2538,0.2587,0.2719,0.2877,0.2954,0.3106,0.3034,0.3124,0.3136,0.279,0.2759,0.2933,0.291,0.3139,0.3138,0.3136,0.3135,0.3134,0,0.1902,0.1897,0.1937,0.1976,0.2029,0.2122,0.2191,0.2321,0.2408,0.2596,0.2662,0.2845,0.2925,0.3107,0.3027,0.3113,0.3235,0.2876,0.2668,0.2959,0.2955,0.2933,0.2912,0.2419,0.2412,0.2406,0.2402,0,0.1913,0.1916,0.1922,0.1987,0.2077,0.2111,0.224,0.2313,0.244,0.2549,0.2698,0.2772,0.2886,0.2764,0.2823,0.283,0.2818,0.2762,0.3223,0.2396,0.2291,0.2281,0.2283,0.2353,0.2358,0.2361,0.2364,0.2366,0.1933,0.1938,0.193,0.1987,0.2063,0.2087,0.2109,0.2212,0.2298,0.2376,0.2576,0.2566,0.2513,0.2399,0.2404,0.2398,0.2554,0.2428,0.2441,0.2461,0.2299,0.2193,0.2209,0.2212,0.2216,0.2219,0.2222,0,0.1889,0.189,0.1931,0.1965,0.1984,0.2046,0.2106,0.2068,0.2103,0.2163,0.2247,0.2012,0.192,0.2009,0.1829,0.1793,0.1745,0.1828,0.1721,0.1768,0.1811,0.1612,0.1343,0.1341,0.1339,0.1338,0,0,0.1835,0.1848,0.1835,0.185,0.189,0.187,0.1871,0.182,0.1818,0.1724,0.1676,0.1742,0.1806,0.148,0.1459,0.1389,0.1583,0.136,0.2046,0.1959,0.2,0.2121,0.1865,0,0,0,0,0]},{"header":{"parameterUnit":"m.s-1","parameterCategory":2,"la1":30.2991,"la2":30.254,"lo1":-89.0895,"lo2":-89.0444,"dy":0.0017,"dx":0.0017,"nx":28,"ny":28,"refTime":"2023-08-05T21:00:00:Z","depth":"2","parameterNumber":3,"parameterNumberName":"V-component_of_CURRENTS"},"data":[0,0,0,0,0,0,0,0,0,0,0,0,0,0,0,0,0,0,0,0,0,0,0,0,0,0,0,0,0,0,0,0,0,0,0,0,0,0,0,0,0,0,0,0,0,0,0,0,0,0,0,0,0,0,0,0,0,0,0.0048,0.0047,0,-0.0071,-0.0073,-0.0074,-0.0221,-0.0223,-0.0225,-0.0227,-0.0391,-0.0393,-0.0396,0,0,0,0,0,0,0,0,0,0,0,0,0,0.0121,0.012,0.0048,0.0047,0.0046,-0.0071,-0.0073,-0.0075,-0.022,-0.0223,-0.0225,-0.0227,-0.039,-0.0393,-0.0396,0,0,0,0,0,0,0,0,0,0,0,0,0,0.0051,0.012,0.0048,-0.0038,-0.0047,-0.0071,-0.0073,-0.0075,-0.022,-0.0223,-0.0226,-0.0229,-0.0389,-0.0392,-0.0396,-0.036,0,0,-0.0408,-0.0409,0,0,0,0,0,0,0,0,0.0055,0.0048,-0.0024,-0.0032,-0.0042,-0.0131,-0.0107,-0.0172,-0.0219,-0.0158,-0.0227,-0.023,-0.0303,-0.0314,-0.0335,-0.0368,-0.0375,-0.0408,-0.041,-0.0412,-0.0413,0,0,0,0,0,0,0,0.006,0.0052,-0.0003,-0.0025,-0.0036,-0.0081,-0.0094,-0.0121,-0.0216,-0.0164,-0.0174,-0.018,-0.0309,-0.0331,-0.034,-0.0378,-0.0408,-0.0411,-0.0414,-0.0415,-0.0465,-0.0464,0,0,0,0,0,0,0.0087,0.0057,0.0001,-0.0006,0.0004,-0.0079,-0.0094,-0.0102,-0.0215,-0.0234,-0.0177,-0.0186,-0.0323,-0.0335,-0.0346,-0.034,-0.0412,-0.0416,-0.0418,-0.0466,-0.0465,-0.0464,0,0,0,0,0,0,0.0089,0.0083,0.0006,0.0025,0.0013,-0.0077,-0.0085,-0.0103,-0.0162,-0.0225,-0.0246,-0.0222,-0.0326,-0.0341,-0.0358,-0.0347,-0.0417,-0.0421,-0.0467,-0.0466,-0.0464,-0.031,0,0,0,0,0,0,0.0092,0.0085,0.007,0.0028,0.0013,0.0001,-0.0082,-0.0103,-0.0158,-0.0172,-0.0268,-0.0285,-0.0329,-0.0351,-0.0362,-0.0354,-0.0424,-0.0468,-0.0467,-0.0465,-0.0316,-0.0303,-0.0292,0,0,0,0,0,0.0095,0.0096,0.0071,0.0063,0.0002,0.0003,-0.0008,-0.0085,-0.0157,-0.0157,-0.0215,-0.0284,-0.035,-0.0352,-0.0365,-0.0358,-0.0469,-0.0467,-0.0465,-0.0322,-0.0306,-0.0293,0,0,0,0,0,0,0.0098,0.0081,0.0051,0.0039,0.0027,-0.0021,-0.0054,-0.0093,-0.0143,-0.0184,-0.0251,-0.0267,-0.028,-0.0338,-0.0339,-0.037,-0.043,-0.043,-0.0316,-0.0302,-0.0291,-0.027,-0.0427,0,0,0,0,0,0.0103,0.0103,0.0085,0.0071,0.0055,-0.0004,-0.0027,-0.0065,-0.0106,-0.0138,-0.0183,-0.0247,-0.0273,-0.0303,-0.0331,-0.0339,-0.0382,-0.0352,-0.034,-0.033,-0.0322,-0.0355,-0.0344,-0.0457,-0.0457,-0.0457,0,0,0.0105,0.0087,0.0087,0.0073,0.0029,0.0052,-0.0029,-0.0063,-0.0044,-0.0142,-0.0151,-0.0197,-0.0262,-0.0261,-0.0277,-0.0315,-0.0317,-0.0327,-0.0317,-0.0316,-0.0351,-0.034,-0.033,-0.0455,-0.0456,-0.0456,0,0,0.0109,0.008,0.008,0.0094,0.0059,0.0052,0.0046,0.001,-0.0022,-0.001,-0.0079,-0.0101,-0.0155,-0.0177,-0.0203,-0.0145,-0.0242,-0.0188,-0.0121,-0.015,-0.0141,-0.0133,-0.0153,-0.0148,-0.0194,-0.0194,-0.0194,0,0.0097,0.0103,0.0082,0.0099,0.0117,0.0062,0.0092,0.0078,0.0054,0.0036,0.0,-0.0059,-0.0105,-0.0105,-0.0085,-0.0115,-0.0158,-0.0163,-0.0132,-0.0126,-0.0121,-0.0143,-0.0139,-0.0186,-0.0187,-0.0188,-0.0189,0,0.0136,0.013,0.0126,0.0149,0.0183,0.0189,0.0206,0.0194,0.0152,0.0143,0.0127,0.0091,0.0035,0.003,-0.0009,-0.0001,-0.0049,-0.0098,-0.016,-0.0099,-0.0127,-0.0126,-0.0175,-0.0178,-0.018,-0.0182,0,0,0.0096,0.0145,0.0124,0.016,0.0209,0.024,0.0272,0.0288,0.0278,0.0265,0.027,0.0247,0.0185,0.0152,0.0099,0.0093,0.0113,0.0012,0.0006,0.0008,0.0043,0.0062,0.0063,0.0055,0.0056,0.0056,0.0017,0,0.0101,0.0155,0.0188,0.026,0.0304,0.0314,0.0365,0.0383,0.0369,0.037,0.0319,0.0314,0.0241,0.0215,0.0193,0.0133,0.0117,0.0128,-0.0031,-0.0035,-0.0013,0.0066,0.0034,0.0,0.0017,0.0017,0.0017,0,0.0131,0.0153,0.0232,0.0322,0.0333,0.0375,0.0425,0.0474,0.0468,0.0447,0.0416,0.038,0.0366,0.0302,0.0218,0.0216,0.0134,0.0099,0.0095,0.0057,-0.0015,-0.0065,-0.0,0.0017,0.0017,0.0017,0.0017,0,0.0156,0.0196,0.0261,0.0303,0.0394,0.0391,0.0423,0.0455,0.0485,0.0492,0.0503,0.0457,0.0434,0.0345,0.0244,0.0217,0.0167,0.0108,0.0056,0.0055,-0.0028,-0.0036,0.0054,0.0054,0.0054,0.0054,0.0055,0,0.0202,0.0236,0.0247,0.0292,0.0325,0.0404,0.0449,0.045,0.0485,0.0552,0.0523,0.0566,0.0441,0.0393,0.0282,0.0181,0.0171,0.0095,0.0056,0.0027,0.0025,-0.002,-0.0028,0.0053,0.0053,0.0054,0.0054,0,0.0248,0.0265,0.0325,0.035,0.0354,0.0375,0.0441,0.0489,0.051,0.0595,0.0607,0.062,0.0583,0.0466,0.0349,0.0237,0.0147,0.0104,0.0093,0.0057,0.0044,0.0044,0.0051,0.0052,0.0052,0.0053,0.0053,0,0.0282,0.0325,0.0348,0.0363,0.0351,0.0389,0.044,0.0474,0.0542,0.0653,0.0702,0.0701,0.076,0.0604,0.0386,0.021,0.0179,0.0075,0.0036,0.0087,0.0048,0.0048,0.0047,-0.002,-0.002,-0.0021,-0.0021,0,0.0322,0.0322,0.0351,0.0392,0.0409,0.0489,0.0539,0.0589,0.069,0.0777,0.0915,0.0987,0.0835,0.0669,0.0411,0.0287,0.0106,0.0068,0.0112,0.0002,0.0021,-0.0017,-0.0016,-0.0023,-0.0023,-0.0023,-0.0023,-0.0022,0.0303,0.033,0.0377,0.0421,0.0464,0.0579,0.0658,0.076,0.0896,0.1029,0.1078,0.1139,0.0895,0.0563,0.0354,0.0096,0.0115,0.0014,0.0013,0.0013,0.0029,0.005,0.0014,0.0014,0.0015,0.0015,0.0015,0,0.032,0.0373,0.0426,0.0485,0.0569,0.0591,0.0744,0.0859,0.1042,0.1115,0.1235,0.1022,0.084,0.0561,0.0165,-0.0012,-0.0049,-0.0059,-0.0094,-0.009,-0.0087,-0.0078,-0.0122,-0.0123,-0.0123,-0.0124,0,0,0.0343,0.0403,0.0467,0.0576,0.0627,0.0762,0.0862,0.1026,0.111,0.1225,0.1191,0.1155,0.0843,0.0516,0.0255,0.0059,0.0038,0.0033,0.0159,0.0152,0.0157,-0.0033,-0.0012,0,0,0,0,0]}],[{"header":{"parameterUnit":"m.s-1","parameterCategory":2,"la1":30.2991,"la2":30.254,"lo1":-89.0895,"lo2":-89.0444,"dy":0.0017,"dx":0.0017,"nx":28,"ny":28,"refTime":"2023-08-05T21:00:00:Z","depth":"4","parameterNumber":2,"parameterNumberName":"U-component_of_CURRENTS"},"data":[0,0,0,0,0,0,0,0,0,0,0,0,0,0,0,0,0,0,0,0,0,0,0,0,0,0,0,0,0,0,0,0,0,0,0,0,0,0,0,0,0,0,0,0,0,0,0,0,0,0,0,0,0,0,0,0,0,0,-0.0411,-0.0411,0,-0.0438,-0.0438,-0.0438,-0.0412,-0.0411,-0.0411,-0.041,-0.0502,-0.0505,-0.0508,0,0,0,0,0,0,0,0,0,0,0,0,0,-0.0287,-0.0289,-0.0411,-0.0411,-0.0412,-0.0438,-0.0438,-0.0438,-0.0412,-0.0411,-0.0411,-0.041,-0.0501,-0.0504,-0.0508,0,0,0,0,0,0,0,0,0,0,0,0,0,-0.0326,-0.029,-0.041,-0.0406,-0.0406,-0.0438,-0.0438,-0.0438,-0.0412,-0.0411,-0.041,-0.041,-0.0499,-0.0504,-0.0508,-0.0554,0,0,-0.0522,-0.0524,0,0,0,0,0,0,0,0,-0.0324,-0.033,-0.0406,-0.0406,-0.0407,-0.0425,-0.0428,-0.0482,-0.0413,-0.0405,-0.041,-0.0409,-0.0486,-0.0491,-0.0491,-0.0559,-0.0563,-0.0522,-0.0525,-0.0527,-0.0528,0,0,0,0,0,0,0,-0.0321,-0.0328,-0.0417,-0.0407,-0.0407,-0.0386,-0.0391,-0.0437,-0.0448,-0.0405,-0.0405,-0.0416,-0.0486,-0.0486,-0.0493,-0.0564,-0.0522,-0.0526,-0.0529,-0.0531,-0.0712,-0.0714,0,0,0,0,0,0,-0.0332,-0.0327,-0.0416,-0.0418,-0.0367,-0.039,-0.0394,-0.0416,-0.0446,-0.045,-0.0417,-0.0415,-0.0479,-0.0488,-0.0496,-0.0574,-0.0527,-0.0531,-0.0534,-0.0709,-0.0712,-0.0714,0,0,0,0,0,0,-0.0329,-0.034,-0.0415,-0.0375,-0.0384,-0.0394,-0.0418,-0.0417,-0.0429,-0.0454,-0.0459,-0.043,-0.0479,-0.049,-0.0553,-0.0576,-0.0533,-0.0537,-0.0707,-0.071,-0.0713,-0.0716,0,0,0,0,0,0,-0.0325,-0.0339,-0.0363,-0.0377,-0.0387,-0.044,-0.0419,-0.0419,-0.0439,-0.0436,-0.0468,-0.0474,-0.0479,-0.0546,-0.0557,-0.0582,-0.0541,-0.0704,-0.0708,-0.0712,-0.0713,-0.0719,-0.0724,0,0,0,0,0,-0.0321,-0.0351,-0.0364,-0.0375,-0.0419,-0.0441,-0.0444,-0.0443,-0.0441,-0.0449,-0.0477,-0.0474,-0.0579,-0.0552,-0.0564,-0.059,-0.0702,-0.0707,-0.0712,-0.0711,-0.0718,-0.0723,0,0,0,0,0,0,-0.031,-0.0353,-0.0366,-0.0409,-0.043,-0.0439,-0.0455,-0.0457,-0.0484,-0.0491,-0.0505,-0.0514,-0.0579,-0.0595,-0.0565,-0.0657,-0.064,-0.0647,-0.0635,-0.0641,-0.0647,-0.0597,-0.0545,0,0,0,0,0,-0.0324,-0.0359,-0.0389,-0.0426,-0.044,-0.0453,-0.0466,-0.0469,-0.0493,-0.0502,-0.0526,-0.0564,-0.0608,-0.0631,-0.0672,-0.0728,-0.0714,-0.0754,-0.076,-0.0763,-0.0735,-0.0759,-0.0762,-0.073,-0.073,-0.073,0,0,-0.0335,-0.0361,-0.0384,-0.0427,-0.0444,-0.0464,-0.0457,-0.0485,-0.0503,-0.0515,-0.0556,-0.059,-0.0631,-0.0684,-0.0714,-0.0699,-0.0768,-0.077,-0.0772,-0.0741,-0.0763,-0.0766,-0.0768,-0.0733,-0.0732,-0.0732,0,0,-0.0351,-0.0396,-0.0419,-0.044,-0.0474,-0.0486,-0.05,-0.0524,-0.0536,-0.0582,-0.06,-0.0647,-0.0707,-0.0735,-0.0758,-0.0825,-0.08,-0.0845,-0.0823,-0.0847,-0.0849,-0.085,-0.083,-0.0829,-0.084,-0.084,-0.084,0,-0.0364,-0.0392,-0.0428,-0.0447,-0.0467,-0.0499,-0.0517,-0.0542,-0.0582,-0.0602,-0.0598,-0.069,-0.0726,-0.0788,-0.0794,-0.0833,-0.0819,-0.0791,-0.0849,-0.085,-0.0851,-0.0831,-0.083,-0.0841,-0.084,-0.084,-0.084,0,-0.038,-0.0409,-0.0425,-0.0463,-0.0493,-0.0517,-0.0558,-0.059,-0.0613,-0.063,-0.0695,-0.0738,-0.0771,-0.0811,-0.0811,-0.085,-0.0827,-0.0856,-0.082,-0.0853,-0.0831,-0.083,-0.0842,-0.0841,-0.0841,-0.0841,0,0,-0.0403,-0.0428,-0.0438,-0.0444,-0.0502,-0.0521,-0.0575,-0.0619,-0.0639,-0.0688,-0.0708,-0.0783,-0.0779,-0.0803,-0.0831,-0.0848,-0.0843,-0.0832,-0.0833,-0.0787,-0.085,-0.0664,-0.0645,-0.0872,-0.0872,-0.0872,-0.0828,0,-0.0404,-0.0409,-0.0443,-0.0471,-0.0478,-0.0535,-0.0574,-0.0626,-0.0661,-0.0691,-0.0747,-0.0769,-0.0787,-0.0781,-0.081,-0.0843,-0.084,-0.0849,-0.0846,-0.0844,-0.0655,-0.0638,-0.0873,-0.0827,-0.0827,-0.0827,-0.0827,0,-0.0414,-0.0408,-0.0414,-0.0449,-0.0463,-0.0485,-0.0546,-0.0583,-0.0649,-0.0668,-0.0703,-0.0728,-0.0761,-0.0763,-0.0809,-0.0805,-0.0802,-0.0827,-0.0827,-0.0641,-0.0655,-0.0793,-0.0824,-0.0824,-0.0824,-0.0825,-0.0825,0,-0.0382,-0.0404,-0.0397,-0.041,-0.0452,-0.0469,-0.0495,-0.0564,-0.059,-0.0621,-0.0624,-0.0686,-0.0679,-0.0724,-0.074,-0.0766,-0.0773,-0.0832,-0.0666,-0.0654,-0.0835,-0.0834,-0.0837,-0.0837,-0.0837,-0.0837,-0.0838,0,-0.0369,-0.0378,-0.0366,-0.0363,-0.0362,-0.0412,-0.0429,-0.0465,-0.051,-0.0511,-0.0575,-0.0562,-0.066,-0.0677,-0.0718,-0.0651,-0.0751,-0.0623,-0.062,-0.0839,-0.084,-0.0833,-0.0833,-0.0836,-0.0836,-0.0836,-0.0837,0,-0.0357,-0.0349,-0.0342,-0.0347,-0.0341,-0.0339,-0.0365,-0.0386,-0.0412,-0.0408,-0.04,-0.0457,-0.0433,-0.0519,-0.0569,-0.0571,-0.0573,-0.0525,-0.0701,-0.0716,-0.0448,-0.0449,-0.0339,-0.0332,-0.0326,-0.0321,-0.0317,0,-0.0347,-0.0329,-0.0311,-0.0291,-0.0287,-0.0276,-0.0285,-0.0322,-0.0324,-0.0321,-0.0308,-0.0281,-0.0299,-0.0238,-0.0334,-0.0361,-0.0366,-0.0365,-0.0438,-0.0383,-0.0393,-0.0404,-0.0414,-0.0307,-0.0305,-0.0304,-0.0302,0,-0.033,-0.0326,-0.032,-0.0265,-0.0247,-0.0231,-0.0213,-0.02,-0.0221,-0.0242,-0.0148,-0.0118,-0.0072,-0.0107,-0.0097,-0.0146,-0.0379,-0.0303,-0.0318,-0.0386,-0.0343,-0.0361,-0.0378,-0.0281,-0.0284,-0.0286,-0.0287,0,-0.0327,-0.0313,-0.0293,-0.0247,-0.0223,-0.018,-0.0178,-0.013,-0.0122,-0.0091,-0.0038,-0.0023,-0.0024,0.0013,-0.0005,0.0006,-0.0012,-0.0047,-0.0076,-0.01,-0.0043,0.0045,0.0267,0,0,0,0,0,-0.0294,-0.028,-0.0266,-0.0219,-0.0204,-0.0173,-0.0143,-0.0147,-0.0126,-0.002,-0.0016,0.0052,0.0117,0.01,0.0156,0.0058,-0.006,0.0121,-0.0128,-0.0165,-0.0189,-0.0145,0,0,0,0,0,0,-0.0274,-0.0272,-0.0268,-0.0213,-0.0168,-0.0147,-0.0115,-0.0102,-0.0032,0.0007,0.0036,0.0091,0.0119,0.01,0.0166,0.0165,0.0023,0.014,0.0142,-0.0151,-0.0173,-0.0192,-0.0156,0,0,0,0,0]},{"header":{"parameterUnit":"m.s-1","parameterCategory":2,"la1":30.2991,"la2":30.254,"lo1":-89.0895,"lo2":-89.0444,"dy":0.0017,"dx":0.0017,"nx":28,"ny":28,"refTime":"2023-08-05T21:00:00:Z","depth":"4","parameterNumber":3,"parameterNumberName":"V-component_of_CURRENTS"},"data":[0,0,0,0,0,0,0,0,0,0,0,0,0,0,0,0,0,0,0,0,0,0,0,0,0,0,0,0,0,0,0,0,0,0,0,0,0,0,0,0,0,0,0,0,0,0,0,0,0,0,0,0,0,0,0,0,0,0,0.019,0.019,0,0.015,0.0149,0.0148,0.0197,0.0199,0.0201,0.0203,0.0251,0.025,0.025,0,0,0,0,0,0,0,0,0,0,0,0,0,0.0235,0.0234,0.019,0.019,0.0189,0.015,0.0149,0.0148,0.0197,0.0199,0.0202,0.0204,0.0251,0.0251,0.025,0,0,0,0,0,0,0,0,0,0,0,0,0,0.0204,0.0234,0.019,0.0212,0.0214,0.015,0.0149,0.0148,0.0196,0.0199,0.0203,0.0206,0.0252,0.0251,0.0249,0.0178,0,0,0.0246,0.0246,0,0,0,0,0,0,0,0,0.0206,0.0202,0.0209,0.021,0.0212,0.0185,0.0183,0.0163,0.0195,0.0199,0.0204,0.0207,0.0237,0.0237,0.0216,0.018,0.0182,0.0246,0.0245,0.0245,0.0244,0,0,0,0,0,0,0,0.0208,0.0203,0.017,0.0208,0.021,0.0199,0.0198,0.0178,0.0199,0.0199,0.0203,0.0204,0.0239,0.0217,0.0218,0.0183,0.0246,0.0245,0.0244,0.0244,0.0176,0.0175,0,0,0,0,0,0,0.022,0.0205,0.0171,0.0169,0.0221,0.0196,0.0195,0.0187,0.0197,0.0202,0.0201,0.0206,0.0217,0.0219,0.022,0.0226,0.0245,0.0244,0.0243,0.0177,0.0175,0.0174,0,0,0,0,0,0,0.0221,0.0217,0.0173,0.019,0.0185,0.0193,0.0183,0.0185,0.0201,0.0199,0.0206,0.0221,0.022,0.0222,0.0214,0.0225,0.0243,0.0242,0.0178,0.0176,0.0175,0.018,0,0,0,0,0,0,0.0222,0.0217,0.0233,0.0191,0.0184,0.0139,0.018,0.0182,0.0196,0.0203,0.0217,0.0222,0.0222,0.0216,0.0213,0.0224,0.0241,0.018,0.0177,0.0175,0.0181,0.0179,0.0176,0,0,0,0,0,0.0224,0.0216,0.0233,0.0231,0.0199,0.0138,0.0131,0.0147,0.0194,0.0178,0.0197,0.0224,0.0201,0.0213,0.021,0.0222,0.0181,0.0178,0.0175,0.0182,0.0179,0.0177,0,0,0,0,0,0,0.0237,0.022,0.0238,0.0227,0.0193,0.0148,0.015,0.0158,0.0156,0.0188,0.0198,0.0201,0.0201,0.0197,0.021,0.0192,0.0199,0.0196,0.0205,0.0202,0.02,0.0189,0.024,0,0,0,0,0,0.0249,0.0249,0.0213,0.0207,0.0197,0.0181,0.0172,0.0173,0.016,0.0165,0.0176,0.0186,0.0175,0.0182,0.0167,0.015,0.0145,0.0156,0.0154,0.0152,0.0139,0.0132,0.0129,0.0166,0.0166,0.0166,0,0,0.0251,0.0246,0.0246,0.0212,0.02,0.015,0.0183,0.0165,0.0136,0.0169,0.0159,0.0177,0.0166,0.015,0.0151,0.0159,0.0139,0.0149,0.0148,0.0135,0.0129,0.0126,0.0123,0.0164,0.0164,0.0165,0,0,0.0223,0.0252,0.023,0.0201,0.0182,0.0159,0.016,0.013,0.0139,0.0115,0.0139,0.0149,0.0142,0.0126,0.012,0.0087,0.0123,0.0111,0.0098,0.0092,0.0089,0.0086,0.0081,0.0078,0.0115,0.0115,0.0115,0,0.0233,0.0198,0.0209,0.0168,0.0148,0.0163,0.0112,0.0096,0.0071,0.0073,0.0119,0.0109,0.0116,0.008,0.0087,0.0082,0.0098,0.0117,0.0091,0.0088,0.0086,0.008,0.0077,0.0115,0.0115,0.0115,0.0115,0,0.0163,0.0149,0.0132,0.0091,0.0063,0.0028,0.0003,-0.0,0.0037,0.0028,0.0032,0.004,0.0045,0.0053,0.0069,0.0056,0.008,0.0089,0.0105,0.0083,0.0078,0.0074,0.0115,0.0115,0.0115,0.0115,0,0,0.0147,0.0094,0.0093,0.0068,0.0029,-0.0009,-0.0043,-0.0084,-0.0085,-0.007,-0.0078,-0.0073,-0.0016,-0.0022,0.0009,0.0011,0.002,0.0064,0.0064,0.0069,0.0028,-0.0012,-0.0019,0.0054,0.0053,0.0052,0.0035,0,0.0093,0.0015,-0.0002,-0.0075,-0.0117,-0.0114,-0.0149,-0.0169,-0.0154,-0.0156,-0.0127,-0.011,-0.0061,-0.0014,-0.0013,0.0011,0.0012,0.0025,0.0038,0.0037,0.0014,-0.0025,0.005,0.0032,0.0032,0.0031,0.0031,0,0.0031,-0.0011,-0.0076,-0.0138,-0.0153,-0.0166,-0.0187,-0.0222,-0.0225,-0.0203,-0.0176,-0.0147,-0.0134,-0.0075,-0.0062,-0.0037,-0.0,0.0012,0.0012,-0.0033,-0.001,0.0055,0.0024,0.0025,0.0025,0.0026,0.0026,0,0.0024,-0.0065,-0.0101,-0.0123,-0.0188,-0.0171,-0.0178,-0.0191,-0.021,-0.0187,-0.0182,-0.0176,-0.0138,-0.0113,-0.0073,-0.0041,-0.0069,-0.0033,-0.0053,-0.0055,-0.0011,-0.0008,-0.0035,-0.0035,-0.0035,-0.0035,-0.0035,0,-0.0027,-0.0065,-0.0074,-0.0094,-0.0102,-0.0138,-0.013,-0.0135,-0.0152,-0.0185,-0.0157,-0.0181,-0.0133,-0.0147,-0.0104,-0.0103,-0.0093,-0.0076,-0.0071,-0.0009,-0.0006,-0.0013,-0.001,-0.0036,-0.0036,-0.0036,-0.0036,0,-0.0035,-0.0052,-0.0087,-0.0108,-0.0089,-0.0069,-0.0066,-0.0094,-0.0088,-0.0128,-0.0113,-0.0163,-0.0174,-0.0174,-0.0156,-0.0145,-0.0142,-0.0142,-0.0095,-0.0084,-0.011,-0.0107,-0.0164,-0.0166,-0.0167,-0.0169,-0.017,0,-0.0059,-0.0065,-0.005,-0.001,0.0015,0.0042,0.0042,-0.0006,-0.0063,-0.0134,-0.0183,-0.0199,-0.0226,-0.0231,-0.0235,-0.0211,-0.0193,-0.0191,-0.0137,-0.0139,-0.0128,-0.0122,-0.0117,-0.0172,-0.0172,-0.0173,-0.0173,0,-0.0086,-0.0037,-0.0051,0.0065,0.0109,0.0044,0.0039,0.0002,-0.01,-0.0123,-0.019,-0.0199,-0.0246,-0.0246,-0.0239,-0.022,-0.0197,-0.0206,-0.0201,-0.015,-0.0149,-0.0135,-0.0129,-0.0178,-0.0178,-0.0177,-0.0177,0,-0.0061,-0.005,0.0027,0.012,0.0172,0.0104,0.0044,-0.0027,-0.0092,-0.0182,-0.021,-0.0228,-0.0248,-0.0257,-0.0265,-0.025,-0.0224,-0.0188,-0.0183,-0.0178,-0.0181,-0.0181,-0.0235,0,0,0,0,0,-0.0006,0.0031,0.0083,0.0136,0.0185,0.0216,0.0066,-0.0038,-0.0139,-0.0169,-0.018,-0.0212,-0.0218,-0.025,-0.0232,-0.031,-0.0248,-0.0295,-0.0208,-0.0207,-0.0201,-0.0208,0,0,0,0,0,0,0.0019,0.0096,0.0087,0.0182,0.0258,0.0214,0.0142,0.0003,-0.0044,-0.01,-0.0104,-0.0136,-0.0154,-0.0144,-0.0175,-0.0191,-0.013,-0.0311,-0.0311,-0.0211,-0.0205,-0.02,-0.0205,0,0,0,0,0]}]]